Location: Opava
(49.9500°N, 17.9170°E)
Time: 02:55:55
(UTC+01:00)

ISS - Pass Details

Date: 03 October 2020
Orbit: 417 x 420 km, 51.6° (Epoch: 25 October)

Event Time Altitude Azimuth Distance (km) Brightness Sun altitude
Rises 19:31:38 0° 288° (WNW) 2,370 2.0 -12.1°
Reaches altitude 10° 19:33:46 10° 283° (WNW) 1,504 0.6 -12.4°
Maximum altitude 19:37:02 49° 207° (SSW) 547 -3.1 -12.9°
Enters shadow 19:39:14 18° 137° (SE) 1,088 -2.1 -13.3°
